Rbgn^[z[y[W
メイン
   新天体発見情報
     Comet C/2018 W2 (Africano)
投稿するにはまず登録を

スレッド表示 | 新しいものから 前のトピック | 次のトピック | 下へ
投稿者 スレッド
佐藤裕久
投稿日時: 2018-12-22 4:10
モデレータ
登録日: 2005-6-12
居住地: 日本
投稿: 2505
オンライン
Comet C/2018 W2 (Africano)

11月27日、H. Groeller (Catalinaスカイサーベイ, 0.68-m Schmidt望遠鏡)とB. M. Africano 
(Mt Lemmon 1.5-m反射望遠鏡)がCCD画像からほとんど同時に独立して彗星を発見した。
Groellerによると、30秒露出4枚で確りしたコマとp.a. 230-300°に明らかな尾が見えた。彼はこの
天体が約5"〜7"に拡張していることを指摘した。Africanoは視野の縁の近くで彗星を見つけた。30秒
の追加画像では明るく、5"〜8"のこじんまりした核とこの核から数秒拡張した尾らしいものが見え、
p.a. 255-260°に架かっている。
G. V. Williamsの注記によると、Africanoが最初に天体を通報し、Groellerの通報が到着する前に、
この天体が小惑星センターのNEOCP webpageに掲載された。中央局はAfricanoの通報がおよそ11月
27.55日UTで、Groellerの通報の受理の21分前であった。

発見位置は次のとおり、

     2018 UT             R.A. (2000) Decl.       Mag.   Observer
     Nov. 27.51078   12 59 43.44   +44 16 32.9   18.2   Groeller
          27.51494   12 59 43.65   +44 16 36.8   18.4     "
          27.51911   12 59 44.01   +44 16 39.1   18.3     "
          27.52327   12 59 44.24   +44 16 42.9   18.2     "
          27.53001   12 59 44.75   +44 16 47.1   18.3   Africano
          27.53596   12 59 45.13   +44 16 51.3   18.3     "
          27.53893   12 59 45.30   +44 16 53.0   18.4     "

暫定放物線軌道要素と位置推算表は次のとおり、

Orbital elements:
    C/2018 W2 (Africano)
T 2019 Sept. 15.62887 TT                                MPCW
q   1.5906658            (2000.0)            P               Q
                   Peri.  153.66955     +0.89642032     +0.44320418
                   Node   179.94831     +0.01220278     -0.02652351
e   1.0            Incl.  115.11167     +0.44303692     -0.89602821
From 31 observations 2018 Nov. 27-Dec. 2.

Ephemeris:
    C/2018 W2 (Africano)
Date    TT    R. A. (2000) Decl.     Delta      r     Elong.  Phase   m1
2018 11 03    12 33 25.9 +40 42 05   4.4774  4.1054    62.0    12.3  18.9
...
2018 11 18    12 49 18.0 +42 36 40   4.1532  3.9640    72.2    13.7  18.6
...
2018 11 26    12 58 02.8 +43 59 07   3.9767  3.8882    77.7    14.4  18.4
...
2018 12 02    13 04 44.2 +45 12 02   3.8444  3.8312    81.9    14.8  18.3
2018 12 03    13 05 51.8 +45 25 10   3.8225  3.8217    82.5    14.8  18.2
2018 12 04    13 06 59.5 +45 38 36   3.8006  3.8122    83.2    14.9  18.2
...
2018 12 10    13 13 49.5 +47 05 28   3.6704  3.7551    87.3    15.2  18.1
...
2018 12 18    13 23 06.0 +49 18 51   3.5017  3.6787    92.5    15.5  17.9
...
2019 01 02    13 41 03.1 +54 26 26   3.2096  3.5350   101.2    15.8  17.5

(CBET 4580、MPEC 2018-X23)


スレッド表示 | 新しいものから 前のトピック | 次のトピック | トップ

投稿するにはまず登録を
 
© 1999 Tsutomu Seki.